Total_Precipitation_Accumulation
2.00 2.18 2.49 2.97 3.78 4.56 5.28 5.44 5.80 5.38 4.77 4.24 3.82 3.70 3.53 3.23 3.11 3.00 2.93 2.81 2.56 2.47 2.71 2.57 2.65 2.48 2.54 2.53 2.62 2.90 3.02 2.66 2.74 3.21 2.80 2.18 1.79 1.79 1.70 1.72 1.79 1.79 1.86
2.08 2.42 2.94 3.34 3.37 3.92 4.65 4.72 4.46 4.30 3.90 3.57 3.42 3.24 3.19 2.85 2.69 2.57 2.71 2.51 2.35 2.43 2.46 2.58 2.42 2.35 2.48 2.45 2.49 2.76 2.74 2.44 2.63 3.13 3.27 2.74 2.34 1.99 1.61 1.64 1.69 1.78 2.04
1.91 2.33 2.75 3.20 3.18 3.58 3.67 3.32 3.18 3.30 3.27 3.13 3.05 2.95 2.96 2.76 2.52 2.40 2.47 2.30 2.12 2.18 2.23 2.20 2.24 2.33 2.07 2.23 2.44 2.59 2.68 2.57 2.49 2.73 3.21 3.04 2.70 2.31 1.90 1.74 1.85 2.05 2.24
1.37 1.65 1.98 2.41 2.62 2.72 2.65 2.62 2.61 2.68 2.90 2.91 2.70 2.55 2.32 2.27 2.25 2.19 2.26 2.28 2.06 1.96 1.99 1.98 2.13 2.20 2.11 2.36 2.06 2.19 2.48 2.69 2.49 2.50 2.53 2.61 2.87 2.85 2.43 2.06 1.92 2.01 2.17
1.05 1.19 1.28 1.50 1.78 2.04 2.13 2.13 2.43 2.56 2.58 2.57 2.54 2.61 2.36 2.24 2.24 2.38 2.61 2.54 2.20 1.87 1.72 1.82 2.00 2.11 2.16 2.25 2.15 2.25 2.22 2.29 2.33 2.42 2.42 2.57 2.82 2.65 2.56 2.40 2.18 2.06 1.90
0.83 1.01 1.04 1.08 1.21 1.37 1.52 1.65 1.97 2.21 2.28 2.23 2.24 2.32 2.37 2.39 2.24 2.23 2.32 2.29 2.14 1.92 1.74 1.78 2.01 2.08 2.14 2.17 2.20 2.15 2.06 2.15 2.25 2.30 2.36 2.57 2.60 2.54 2.63 2.48 2.30 2.17 1.91
0.65 0.83 0.82 0.86 0.97 1.01 1.13 1.36 1.60 1.79 1.89 1.96 2.03 2.10 2.31 2.30 2.12 1.95 2.02 2.07 1.97 1.86 1.83 1.77 2.07 2.20 2.18 2.12 2.21 2.19 2.14 2.26 2.33 2.34 2.36 2.42 2.39 2.43 2.65 2.69 2.41 2.24 2.02
0.60 0.64 0.59 0.61 0.76 0.84 0.95 1.13 1.31 1.42 1.54 1.74 1.94 1.94 2.09 1.96 1.86 2.01 1.92 1.82 1.64 1.70 1.94 2.04 2.06 2.08 2.12 2.10 2.36 2.20 2.22 2.30 2.31 2.17 2.53 2.51 2.36 2.62 2.87 3.03 3.08 2.73 2.47
0.56 0.55 0.49 0.51 0.56 0.63 0.73 0.96 1.25 1.32 1.35 1.44 1.65 1.75 1.74 1.76 1.88 2.09 2.02 1.86 1.78 1.69 1.90 2.06 2.16 2.09 2.08 2.20 2.43 2.39 2.42 2.52 2.40 2.38 2.64 2.56 2.45 2.55 2.70 3.00 3.29 3.31 3.01
0.65 0.69 0.56 0.55 0.57 0.59 0.71 0.84 1.01 1.24 1.42 1.38 1.35 1.36 1.61 1.68 1.82 1.94 1.87 1.85 1.84 1.88 1.98 1.97 2.00 1.99 1.96 2.10 2.46 2.47 2.48 2.67 2.61 2.56 2.60 2.58 2.46 2.57 2.61 2.74 3.11 3.41 3.43
0.60 0.69 0.54 0.53 0.54 0.62 0.72 0.84 0.98 1.25 1.41 1.28 1.28 1.38 1.55 1.66 1.72 1.91 1.90 1.85 1.87 1.98 2.00 1.99 1.98 1.91 1.81 1.93 2.15 2.25 2.44 2.58 2.62 2.57 2.61 2.60 2.73 2.78 2.66 2.76 2.91 3.16 3.34
0.65 0.71 0.67 0.76 0.79 0.87 0.91 0.95 1.02 1.18 1.28 1.27 1.31 1.38 1.49 1.57 1.66 1.76 1.87 1.93 1.92 2.02 2.06 2.06 2.01 1.84 1.82 1.93 2.04 2.16 2.35 2.47 2.55 2.65 2.75 2.54 2.68 2.80 2.74 2.76 2.77 2.92 3.20
0.80 0.78 0.86 1.00 0.96 0.98 1.09 1.10 1.16 1.21 1.30 1.41 1.39 1.36 1.43 1.42 1.49 1.62 1.73 1.86 1.94 2.03 2.13 2.16 2.06 2.00 2.02 2.09 2.14 2.22 2.35 2.43 2.48 2.57 2.58 2.54 2.70 2.59 2.67 2.78 2.72 2.74 2.79
0.88 0.81 0.86 0.94 0.98 1.03 1.15 1.24 1.24 1.20 1.27 1.31 1.35 1.39 1.40 1.46 1.57 1.68 1.77 1.86 1.88 1.95 1.96 1.93 2.01 2.08 2.12 2.15 2.16 2.16 2.18 2.23 2.28 2.25 2.16 2.13 2.19 2.25 2.47 2.46 2.45 2.55 2.64
0.89 0.84 0.87 0.93 1.08 1.11 1.07 1.12 1.17 1.19 1.32 1.33 1.30 1.38 1.50 1.54 1.59 1.62 1.67 1.74 1.76 1.74 1.91 1.93 2.04 2.12 2.08 1.97 2.05 2.08 2.02 2.17 2.08 1.92 1.88 1.89 1.99 2.03 2.11 2.00 2.10 2.32 2.39
0.90 0.92 1.01 1.12 1.12 1.01 0.96 0.99 0.96 1.05 1.24 1.35 1.46 1.56 1.56 1.48 1.56 1.60 1.64 1.68 1.75 1.84 1.92 1.96 2.07 2.13 1.98 2.04 2.09 2.11 2.08 2.11 2.03 1.97 1.89 1.75 1.75 1.76 1.77 1.77 1.82 1.98 2.11
0.84 0.95 1.05 1.08 1.08 1.11 1.06 0.96 0.87 1.00 1.32 1.41 1.43 1.63 1.75 1.65 1.72 1.75 1.77 1.76 1.79 1.94 2.02 2.13 2.19 2.13 2.24 2.19 2.03 2.04 1.98 2.00 2.02 2.03 1.99 1.69 1.51 1.66 1.61 1.73 1.72 1.68 1.73
0.68 0.83 0.90 0.94 0.98 1.02 1.03 1.00 1.00 1.05 1.31 1.51 1.60 1.87 2.04 1.91 1.90 1.92 1.94 1.99 2.09 2.16 2.23 2.23 2.15 2.13 2.23 2.21 1.88 1.78 1.69 1.77 1.85 1.88 1.92 1.92 1.81 1.79 1.82 1.86 1.84 1.74 1.69
0.69 0.75 0.87 0.94 1.06 1.21 1.21 1.18 1.27 1.37 1.54 1.71 1.85 2.11 2.34 2.45 2.40 2.25 2.31 2.39 2.38 2.36 2.43 2.44 2.38 2.26 2.28 2.14 1.77 1.63 1.53 1.64 1.72 1.76 1.75 1.77 1.69 1.75 1.66 1.63 1.64 1.63 1.58
0.74 0.89 1.07 1.11 1.16 1.35 1.36 1.39 1.51 1.75 1.92 1.92 1.95 2.15 2.39 2.49 2.46 2.43 2.59 2.69 2.59 2.49 2.53 2.44 2.32 2.20 2.21 2.17 1.84 1.62 1.51 1.63 1.72 1.81 1.77 1.74 1.67 1.65 1.49 1.40 1.44 1.41 1.43
0.80 0.86 0.89 1.04 1.17 1.31 1.43 1.62 1.70 1.85 1.95 2.01 2.01 2.13 2.36 2.63 2.57 2.59 2.66 2.73 2.73 2.73 2.73 2.63 2.50 2.32 2.26 2.27 1.94 1.72 1.56 1.62 1.67 1.60 1.58 1.57 1.57 1.37 1.29 1.27 1.27 1.29 1.31
0.85 0.90 0.85 0.95 1.14 1.36 1.59 1.71 1.74 1.83 1.99 2.03 2.02 2.08 2.34 2.47 2.52 2.66 2.71 2.80 2.89 2.86 2.82 2.79 2.59 2.52 2.45 2.18 1.90 1.71 1.65 1.69 1.71 1.65 1.60 1.59 1.48 1.25 1.16 1.05 1.00 1.05 1.03
0.95 1.03 1.06 1.07 1.19 1.37 1.60 1.82 1.87 1.86 1.82 1.79 1.80 1.92 2.12 2.22 2.36 2.47 2.42 2.47 2.60 2.58 2.58 2.58 2.50 2.53 2.64 2.45 1.99 1.70 1.61 1.64 1.67 1.76 1.82 1.63 1.46 1.31 1.17 1.12 1.04 0.95 0.88
1.13 1.16 1.27 1.27 1.29 1.38 1.57 1.75 1.78 1.80 1.78 1.72 1.69 1.81 2.06 2.19 2.27 2.32 2.29 2.34 2.38 2.44 2.49 2.52 2.45 2.48 2.62 2.57 2.24 1.90 1.69 1.59 1.53 1.53 1.53 1.42 1.35 1.24 1.12 1.05 0.95 0.85 0.88
1.18 1.19 1.27 1.35 1.34 1.39 1.57 1.71 1.76 1.82 1.87 1.85 1.84 1.95 2.04 2.12 2.29 2.35 2.37 2.36 2.35 2.32 2.32 2.31 2.25 2.26 2.37 2.39 2.17 1.88 1.69 1.57 1.53 1.49 1.46 1.42 1.43 1.33 1.23 1.16 1.11 1.10 1.12
1.28 1.33 1.37 1.39 1.37 1.38 1.50 1.64 1.82 1.99 2.03 1.97 1.95 1.95 1.93 1.99 2.01 2.04 1.99 1.95 1.88 1.86 1.83 1.82 1.72 1.69 1.85 1.84 1.56 1.42 1.45 1.46 1.42 1.32 1.33 1.39 1.44 1.39 1.32 1.27 1.22 1.23 1.22